Location: Inuvik
(68.3607°N, 133.7230°W)
Time: 07:44:52
(UTC-07:00)

Envisat - Visible Passes

Search period start: 27 November 2020 00:00
Search period end: 07 December 2020 00:00
Orbit: 764 x 766 km, 98.1° (Epoch: 27 November)

Date Brightness Start Highest point End Pass type
(mag) Time Alt. Az. Time Alt. Az. Time Alt. Az.
27 Nov 6.2 05:45:57 10° NE 05:48:10 13° ENE 05:50:24 10° E visible
27 Nov 4.6 07:24:02 10° NNE 07:28:45 36° E 07:33:27 10° SSE visible
27 Nov 2.9 09:03:09 10° NNE 09:08:16 80° WNW 09:13:22 10° SSW visible
27 Nov 3.1 17:13:47 10° SE 17:18:46 57° NE 17:23:46 10° NNW visible
27 Nov 3.8 18:52:57 10° S 18:57:57 53° WSW 19:02:58 10° NNW visible
27 Nov 5.7 20:34:34 10° WSW 20:38:08 19° W 20:41:42 10° NW visible
28 Nov 5.3 06:47:20 10° NNE 06:51:30 25° E 06:55:39 10° SE visible
28 Nov 3.3 08:26:16 10° NNE 08:31:24 71° ESE 08:36:29 10° SSW visible
28 Nov 3.3 10:05:29 10° NNE 10:10:20 45° NW 10:15:10 10° WSW visible
28 Nov 3.2 18:15:52 10° SSE 18:20:59 79° WSW 18:26:07 10° NNW visible
28 Nov 5.1 19:56:26 10° SW 20:00:47 27° W 20:05:08 10° NNW visible
29 Nov 5.8 06:10:50 10° NE 06:14:06 17° ENE 06:17:22 10° ESE visible
29 Nov 4.0 07:49:26 10° NNE 07:54:23 48° E 07:59:19 10° S visible
29 Nov 3.0 09:28:37 10° NNE 09:33:40 63° WNW 09:38:42 10° SW visible
29 Nov 3.0 17:39:04 10° SE 17:44:08 73° ENE 17:49:15 10° NNW visible
29 Nov 4.4 19:18:46 10° SSW 19:23:34 40° W 19:28:23 10° NNW visible
29 Nov 6.1 21:01:20 10° WSW 21:04:01 14° WNW 21:06:44 10° NW visible
30 Nov 6.3 05:35:02 10° NE 05:36:32 11° ENE 05:38:03 10° E visible
30 Nov 4.8 07:12:39 10° NNE 07:17:15 32° E 07:21:48 10° SSE visible
30 Nov 3.0 08:51:44 10° NNE 08:56:53 89° WNW 09:01:59 10° SSW visible
30 Nov 3.5 10:30:57 10° NNE 10:35:36 37° NW 10:40:15 10° WSW visible
30 Nov 3.2 17:02:29 10° SE 17:07:25 52° NE 17:12:21 10° NNW visible
30 Nov 3.6 18:41:27 10° S 18:46:30 60° WSW 18:51:34 10° NNW visible
30 Nov 5.6 20:22:43 10° SW 20:26:34 21° W 20:30:25 10° NNW visible
01 Dec 5.4 06:35:59 10° NNE 06:39:57 22° E 06:43:53 10° SE visible
01 Dec 3.5 08:14:52 10° NNE 08:19:58 64° ESE 08:25:02 10° S visible
01 Dec 3.2 09:54:05 10° NNE 09:59:00 49° NW 10:03:54 10° SW visible
01 Dec 3.0 18:04:27 10° SSE 18:09:34 88° WSW 18:14:43 10° NNW visible
01 Dec 4.9 19:44:45 10° SSW 19:49:15 31° W 19:53:46 10° NNW visible
01 Dec 6.3 21:28:58 10° WNW 21:30:00 11° WNW 21:31:02 10° NW visible
02 Dec 6.0 05:59:37 10° NE 06:02:30 15° ENE 06:05:23 10° ESE visible
02 Dec 4.3 07:38:02 10° NNE 07:42:55 42° E 07:47:46 10° S visible
02 Dec 2.9 09:17:12 10° NNE 09:22:18 70° WNW 09:27:22 10° SW visible
02 Dec 3.0 17:27:43 10° SE 17:32:46 66° ENE 17:37:50 10° NNW visible
02 Dec 4.2 19:07:11 10° S 19:12:05 45° W 19:17:00 10° NNW visible
02 Dec 5.9 20:49:19 10° WSW 20:52:26 16° WNW 20:55:32 10° NW visible
03 Dec 5.0 07:01:18 10° NNE 07:05:44 29° E 07:10:08 10° SSE visible
03 Dec 3.1 08:40:20 10° NNE 08:45:28 83° ESE 08:50:35 10° SSW visible
03 Dec 3.4 10:19:32 10° NNE 10:24:17 40° NW 10:29:01 10° WSW visible
03 Dec 3.3 16:51:13 10° ESE 16:56:05 47° NE 17:00:57 10° NNW visible
03 Dec 3.4 18:29:58 10° S 18:35:03 68° WSW 18:40:10 10° NNW visible
03 Dec 5.4 20:10:56 10° SW 20:15:00 23° W 20:19:05 10° NNW visible
04 Dec 5.6 06:24:41 10° NNE 06:28:23 20° E 06:32:04 10° SE visible
04 Dec 3.7 08:03:28 10° NNE 08:08:31 56° ESE 08:13:32 10° S visible
04 Dec 3.1 09:42:40 10° NNE 09:47:39 55° NW 09:52:37 10° SW visible
04 Dec 3.0 17:53:03 10° SSE 17:58:10 84° ENE 18:03:18 10° NNW visible
04 Dec 4.7 19:33:06 10° SSW 19:37:44 34° W 19:42:24 10° NNW visible
04 Dec 6.2 21:16:25 10° W 21:18:22 12° WNW 21:20:19 10° NW visible
05 Dec 6.1 05:48:28 10° NE 05:50:54 13° ENE 05:53:19 10° E visible
05 Dec 4.5 07:26:40 10° NNE 07:31:26 38° E 07:36:10 10° SSE visible
05 Dec 2.9 09:05:48 10° NNE 09:10:55 77° WNW 09:16:01 10° SSW visible
05 Dec 3.6 10:44:59 10° NNE 10:49:31 33° NW 10:54:03 10° WSW visible
05 Dec 3.0 17:16:24 10° SE 17:21:23 59° NE 17:26:25 10° NNW visible
05 Dec 3.9 18:55:39 10° S 19:00:36 51° WSW 19:05:37 10° NNW visible
05 Dec 5.8 20:37:23 10° WSW 20:40:50 18° WNW 20:44:18 10° NW visible
06 Dec 5.2 06:49:56 10° NNE 06:54:12 26° E 06:58:25 10° SE visible
06 Dec 3.2 08:28:55 10° NNE 08:34:03 74° ESE 08:39:09 10° SSW visible
06 Dec 3.3 10:08:08 10° NNE 10:12:58 44° NW 10:17:46 10° WSW visible
06 Dec 3.4 16:39:56 10° ESE 16:44:44 43° NE 16:49:33 10° NNW visible
06 Dec 3.2 18:18:32 10° SSE 18:23:38 76° WSW 18:28:46 10° NNW visible
06 Dec 5.2 19:59:11 10° SW 20:03:28 26° W 20:07:45 10° NNW visible
